Location: B�hl
(48.6968°N, 8.1352°E)
Time: 02:22:27
(UTC+00:00)

Nadezhda 3 Rocket - Pass Details

Date: 08 March 2021
Orbit: 957 x 999 km, 82.9° (Epoch: 17 April)

Event Time Altitude Azimuth Distance (km) Brightness Sun altitude
Rises 17:51:50 0° 349° (N) 3,731 7.2 -5.7°
Reaches altitude 10° 17:54:22 10° 348° (NNW) 2,780 6.6 -6.1°
Maximum altitude 18:00:45 77° 264° (W) 1,029 4.3 -7.2°
Drops below altitude 10° 18:07:05 10° 180° (S) 2,758 6.4 -8.2°
Sets 18:09:36 0° 179° (S) 3,700 7.0 -8.6°
